{"data":{"norad_id":56534,"epoch":"2026-09-20T22:24:58.716288Z","epoch_age_seconds":77276,"freshness":"FRESH","line1":"1 56534U 23065AH  26263.93401292 -.00000423  00000+0 -58423-5 0  9995","line2":"2 56534  43.0031 175.6535 0000685 265.3978  94.6795 15.27573716186624","mean_motion":15.27573716,"eccentricity":6.85e-5,"inclination_deg":43.0031,"raan_deg":175.6535,"arg_perigee_deg":265.3978,"mean_anomaly_deg":94.6795,"bstar":-5.8423e-6,"rev_number":18662,"period_min":94.26713650001,"perigee_km":482.5979201243,"apogee_km":483.53790519733,"semimajor_km":6861.2049126608,"source":"CELESTRAK","updated_at":"2026-09-21T09:00:33.475478Z"}}